Miscellaneous Local Product
Issued by NWS North Platte, NE

Home | Current Version | Previous Version | Graphics & Text | Print | Product List | Glossary On
Versions: 1 2 3 4 5 6 7 8 9 10 11 12 13 14 15 16 17 18 19 20 21 22 23 24 25 26 27 28 29 30 31 32 33 34 35 36 37 38 39 40 41 42 43 44 45 46 47 48 49 50
414
AXUS43 KLBF 210310
MISLBF


WESTERN AND NORTH CENTRAL NEBRASKA HOURLY WEATHER ROUNDUP
NATIONAL WEATHER SERVICE NORTH PLATTE NE
1000 PM CDT SAT MAY 20 2017

NOTE: "FAIR" INDICATES FEW OR NO CLOUDS BELOW 12,000 FEET WITH NO
SIGNIFICANT WEATHER AND/OR OBSTRUCTIONS TO VISIBILITY.

NOTE: STATIONS NOT REPORTING VARIABLES SUCH AS SKY/WEATHER OR
PRESSURE ARE PROVIDED BY RAWS AND APRS NETWORKS AND ARE NOT UNDER
NATIONAL WEATHER SERVICE QUALITY CONTROL.

...OBSERVATIONS IN AND NEAR THE EASTERN PANHANDLE OF NEBRASKA...

CITY           SKY/WX    TMP DP  RH WIND       PRES   REMARKS
PINE RIDGE     PTCLDY    46  34  62 CALM      30.00R
GORDON         FAIR      42  32  67 W7        30.00R
CHADRON        CLOUDY    49  40  71 NW3       30.03R
ALLIANCE       CLEAR     37  33  85 W8        30.03R WCI  31
SIDNEY         PTCLDY    41  37  86 NW7       30.06R
CRESCENT LAKE    N/A     46  37  72 W6          N/A
$$

...OBSERVATIONS IN NORTHERN NEBRASKA AND FAR SOUTHERN SOUTH DAKOTA...

CITY           SKY/WX    TMP DP  RH WIND       PRES   REMARKS
WINNER         CLOUDY    42  40  92 N6        29.98R
VALENTINE      CLOUDY    41  36  82 CALM      29.99R
THEDFORD       CLOUDY    35  34  97 SW7       30.01R WCI  29
AINSWORTH      CLOUDY    39  38  99 NW3       29.98R
O`NEILL        LGT RAIN  38  35  89 NW15      29.95R WCI  29
ORD            LGT RAIN  38  35  89 NW15      29.96R WCI  29
BROKEN BOW     PTCLDY    39  37  92 NW10      29.99R WCI  32
HALSEY           N/A     34  34  99 CALM        N/A
BUTTE            N/A     39  38  95 N12G20      N/A  WCI  32
CHAMBERS         N/A     38  37  96 N5          N/A  WCI  34
EWING            N/A     40  38  94 NW12G18     N/A  WCI  33
$$

...OBSERVATIONS IN SOUTHWEST NEBRASKA AND FAR NORTHEAST COLORADO...

CITY           SKY/WX    TMP DP  RH WIND       PRES   REMARKS
WRAY           FAIR      46  41  81 CALM      30.06R
IMPERIAL       CLEAR     43  39  86 SW8       30.04R
OGALLALA       PTCLDY    43  40  91 CALM      30.04R
NORTH PLATTE   FOG       35  35 100 CALM      30.03R VSB 3/4
MCCOOK         CLEAR     40  39  97 CALM      30.05R
LEXINGTON      PTCLDY    40  37  89 W8        30.04R WCI  34
STAPLETON        N/A     34  33  96 CALM        N/A
GOTHENBURG       N/A     39  35  85 W3          N/A
CALLAWAY         N/A     38  36  93 NW8         N/A  WCI  32
$$

...OBSERVATIONS IN CENTRAL LINCOLN COUNTY AREA...

CITY           SKY/WX    TMP DP  RH WIND       PRES   REMARKS
N.P. AIRPORT   FOG       35  35 100 CALM      30.03R VSB 3/4
N.P. DOWNTOWN    N/A     38  37  97 CALM        N/A
N.P. SOUTHEAST   N/A     38  36  92 CALM        N/A
N.P. HILLCREST   N/A     40  39  95 CALM        N/A
$$

...SOME OBSERVATIONS FROM AROUND THE REGION...

CITY           SKY/WX    TMP DP  RH WIND       PRES   REMARKS
DENVER         CLOUDY    48  34  58 NE8       30.12R
LIMON          CLEAR     39  34  82 CALM      30.13R
ASPEN          CLOUDY    40  28  62 S6        30.21R
LARAMIE        CLOUDY    40  30  67 W8        30.15R WCI  34
CASPER         LGT RAIN  47  38  71 W16       30.12R
CHEYENNE       PTCLDY    41  31  67 W13       30.12R
SCOTTSBLUFF    CLEAR     45  39  79 NE7       30.05R
GRAND ISLAND   CLOUDY    41  38  89 NW14      29.98R
OMAHA          CLOUDY    50  43  77 NW10      29.89R
SIOUX FALLS    CLOUDY    43  42  97 NW12      29.84R
PIERRE         CLOUDY    44  37  76 N12       29.98R
RAPID CITY     CLEAR     46  30  53 NW12      30.01R
BISMARCK       PTCLDY    45  36  70 E8        30.05R
KANSAS CITY    CLOUDY    54  44  69 W9        29.97R
HILL CITY      CLEAR     41  38  89 W5        30.08R
WICHITA        PTCLDY    53  46  77 W9        30.03R
DODGE CITY     CLEAR     47  41  80 N6        30.09R
OKLAHOMA CITY  CLEAR     62  45  53 N8        30.06R
DALLAS         PTCLDY    72  57  59 N7        30.01R
AMARILLO       CLEAR     56  37  49 E9        30.11R
$$




USA.gov is the U.S. government's official web portal to all federal, state and local government web resources and services.